Year,Month,Day,Hour,Minute,Value (Times are PST for temperature in C)
2020,04,24,00,00,8.40
2020,04,24,00,01,8.30
2020,04,24,00,02,8.30
2020,04,24,00,03,8.30
2020,04,24,00,04,8.20
2020,04,24,00,05,8.20
2020,04,24,00,06,8.10
2020,04,24,00,07,8.10
2020,04,24,00,08,8.10
2020,04,24,00,09,8.00
2020,04,24,00,10,8.00
2020,04,24,00,11,8.00
2020,04,24,00,12,8.00
2020,04,24,00,13,7.90
2020,04,24,00,14,7.90
2020,04,24,00,15,7.90
2020,04,24,00,16,7.90
2020,04,24,00,17,7.80
2020,04,24,00,18,7.80
2020,04,24,00,19,7.80
2020,04,24,00,20,7.70
2020,04,24,00,21,7.70
2020,04,24,00,22,7.70
2020,04,24,00,23,7.70
2020,04,24,00,24,7.60
2020,04,24,00,25,7.60
2020,04,24,00,26,7.60
2020,04,24,00,27,7.50
2020,04,24,00,28,7.50
2020,04,24,00,29,7.50
2020,04,24,00,30,7.50
2020,04,24,00,31,7.50
2020,04,24,00,32,7.50
2020,04,24,00,33,7.40
2020,04,24,00,34,7.40
2020,04,24,00,35,7.40
2020,04,24,00,36,7.40
2020,04,24,00,37,7.40
2020,04,24,00,38,7.40
2020,04,24,00,39,7.30
2020,04,24,00,40,7.30
2020,04,24,00,41,7.30
2020,04,24,00,42,7.30
2020,04,24,00,43,7.30
2020,04,24,00,44,7.30
2020,04,24,00,45,7.30
2020,04,24,00,46,7.20
2020,04,24,00,47,7.20
2020,04,24,00,48,7.20
2020,04,24,00,49,7.20
2020,04,24,00,50,7.20
2020,04,24,00,51,7.20
2020,04,24,00,52,7.10
2020,04,24,00,53,7.10
2020,04,24,00,54,7.10
2020,04,24,00,55,7.10
2020,04,24,00,56,7.10
2020,04,24,00,57,7.00
2020,04,24,00,58,7.00
2020,04,24,00,59,7.00
2020,04,24,01,00,7.00
2020,04,24,01,01,7.00
2020,04,24,01,02,7.00
2020,04,24,01,03,7.00
2020,04,24,01,04,7.00
2020,04,24,01,05,7.00
2020,04,24,01,06,7.00
2020,04,24,01,07,7.00
2020,04,24,01,08,7.00
2020,04,24,01,09,7.00
2020,04,24,01,10,6.90
2020,04,24,01,11,6.90
2020,04,24,01,12,7.00
2020,04,24,01,13,7.00
2020,04,24,01,14,7.00
2020,04,24,01,15,7.00
2020,04,24,01,16,7.00
2020,04,24,01,17,7.00
2020,04,24,01,18,7.00
2020,04,24,01,19,6.90
2020,04,24,01,20,6.90
2020,04,24,01,21,6.90
2020,04,24,01,22,6.90
2020,04,24,01,23,6.90
2020,04,24,01,24,6.90
2020,04,24,01,25,6.90
2020,04,24,01,26,6.80
2020,04,24,01,27,6.80
2020,04,24,01,28,6.80
2020,04,24,01,29,6.80
2020,04,24,01,30,6.80
2020,04,24,01,31,6.80
2020,04,24,01,32,6.80
2020,04,24,01,33,6.80
2020,04,24,01,34,6.80
2020,04,24,01,35,6.80
2020,04,24,01,36,6.80
2020,04,24,01,37,6.70
2020,04,24,01,38,6.70
2020,04,24,01,39,6.70
2020,04,24,01,40,6.70
2020,04,24,01,41,6.70
2020,04,24,01,42,6.70
2020,04,24,01,43,6.70
2020,04,24,01,44,6.60
2020,04,24,01,45,6.60
2020,04,24,01,46,6.60
2020,04,24,01,47,6.60
2020,04,24,01,48,6.60
2020,04,24,01,49,6.60
2020,04,24,01,50,6.60
2020,04,24,01,51,6.60
2020,04,24,01,52,6.50
2020,04,24,01,53,6.50
2020,04,24,01,54,6.50
2020,04,24,01,55,6.40
2020,04,24,01,56,6.40
2020,04,24,01,57,6.40
2020,04,24,01,58,6.30
2020,04,24,01,59,6.30
2020,04,24,02,00,6.30
2020,04,24,02,01,6.30
2020,04,24,02,02,6.20
2020,04,24,02,03,6.20
2020,04,24,02,04,6.20
2020,04,24,02,05,6.20
2020,04,24,02,06,6.10
2020,04,24,02,07,6.10
2020,04,24,02,08,6.10
2020,04,24,02,09,6.10
2020,04,24,02,10,6.10
2020,04,24,02,11,6.10
2020,04,24,02,12,6.10
2020,04,24,02,13,6.00
2020,04,24,02,14,6.00
2020,04,24,02,15,6.00
2020,04,24,02,16,6.00
2020,04,24,02,17,6.00
2020,04,24,02,18,6.00
2020,04,24,02,19,6.00
2020,04,24,02,20,5.90
2020,04,24,02,21,5.90
2020,04,24,02,22,5.90
2020,04,24,02,23,5.90
2020,04,24,02,24,5.80
2020,04,24,02,25,5.80
2020,04,24,02,26,5.80
2020,04,24,02,27,5.80
2020,04,24,02,28,5.80
2020,04,24,02,29,5.80
2020,04,24,02,30,5.70
2020,04,24,02,31,5.70
2020,04,24,02,32,5.70
2020,04,24,02,33,5.70
2020,04,24,02,34,5.70
2020,04,24,02,35,5.70
2020,04,24,02,36,5.70
2020,04,24,02,37,5.60
2020,04,24,02,38,5.60
2020,04,24,02,39,5.60
2020,04,24,02,40,5.60
2020,04,24,02,41,5.60
2020,04,24,02,42,5.60
2020,04,24,02,43,5.50
2020,04,24,02,44,5.50
2020,04,24,02,45,5.50
2020,04,24,02,46,5.50
2020,04,24,02,47,5.50
2020,04,24,02,48,5.50
2020,04,24,02,49,5.50
2020,04,24,02,50,5.50
2020,04,24,02,51,5.40
2020,04,24,02,52,5.40
2020,04,24,02,53,5.40
2020,04,24,02,54,5.40
2020,04,24,02,55,5.40
2020,04,24,02,56,5.40
2020,04,24,02,57,5.40
2020,04,24,02,58,5.40
2020,04,24,02,59,5.40
2020,04,24,03,00,5.40
2020,04,24,03,01,5.40
2020,04,24,03,02,5.40
2020,04,24,03,03,5.30
2020,04,24,03,04,5.30
2020,04,24,03,05,5.30
2020,04,24,03,06,5.30
2020,04,24,03,07,5.20
2020,04,24,03,08,5.20
2020,04,24,03,09,5.20
2020,04,24,03,10,5.20
2020,04,24,03,11,5.20
2020,04,24,03,12,5.10
2020,04,24,03,13,5.10
2020,04,24,03,14,5.10
2020,04,24,03,15,5.10
2020,04,24,03,16,5.10
2020,04,24,03,17,5.00
2020,04,24,03,18,5.00
2020,04,24,03,19,5.00
2020,04,24,03,20,5.00
2020,04,24,03,21,5.10
2020,04,24,03,22,5.00
2020,04,24,03,23,5.00
2020,04,24,03,24,5.00
2020,04,24,03,25,5.00
2020,04,24,03,26,4.90
2020,04,24,03,27,4.90
2020,04,24,03,28,4.90
2020,04,24,03,29,4.90
2020,04,24,03,30,4.90
2020,04,24,03,31,5.00
2020,04,24,03,32,5.00
2020,04,24,03,33,4.90
2020,04,24,03,34,5.00
2020,04,24,03,35,5.00
2020,04,24,03,36,5.00
2020,04,24,03,37,4.90
2020,04,24,03,38,4.90
2020,04,24,03,39,4.90
2020,04,24,03,40,4.90
2020,04,24,03,41,4.80
2020,04,24,03,42,4.80
2020,04,24,03,43,4.80
2020,04,24,03,44,4.80
2020,04,24,03,45,4.80
2020,04,24,03,46,4.80
2020,04,24,03,47,4.80
2020,04,24,03,48,4.70
2020,04,24,03,49,4.70
2020,04,24,03,50,4.70
2020,04,24,03,51,4.70
2020,04,24,03,52,4.70
2020,04,24,03,53,4.70
2020,04,24,03,54,4.70
2020,04,24,03,55,4.60
2020,04,24,03,56,4.60
2020,04,24,03,57,4.60
2020,04,24,03,58,4.60
2020,04,24,03,59,4.60
2020,04,24,04,00,4.50
2020,04,24,04,01,4.50
2020,04,24,04,02,4.50
2020,04,24,04,03,4.50
2020,04,24,04,04,4.50
2020,04,24,04,05,4.50
2020,04,24,04,06,4.50
2020,04,24,04,07,4.50
2020,04,24,04,08,4.50
2020,04,24,04,09,4.50
2020,04,24,04,10,4.50
2020,04,24,04,11,4.50
2020,04,24,04,12,4.60
2020,04,24,04,13,4.50
2020,04,24,04,14,4.50
2020,04,24,04,15,4.50
2020,04,24,04,16,4.50
2020,04,24,04,17,4.50
2020,04,24,04,18,4.40
2020,04,24,04,19,4.50
2020,04,24,04,20,4.40
2020,04,24,04,21,4.40
2020,04,24,04,22,4.40
2020,04,24,04,23,4.40
2020,04,24,04,24,4.40
2020,04,24,04,25,4.50
2020,04,24,04,26,4.50
2020,04,24,04,27,4.40
2020,04,24,04,28,4.40
2020,04,24,04,29,4.40
2020,04,24,04,30,4.40
2020,04,24,04,31,4.40
2020,04,24,04,32,4.50
2020,04,24,04,33,4.50
2020,04,24,04,34,4.50
2020,04,24,04,35,4.60
2020,04,24,04,36,4.60
2020,04,24,04,37,4.60
2020,04,24,04,38,4.60
2020,04,24,04,39,4.60
2020,04,24,04,40,4.60
2020,04,24,04,41,4.60
2020,04,24,04,42,4.60
2020,04,24,04,43,4.60
2020,04,24,04,44,4.50
2020,04,24,04,45,4.60
2020,04,24,04,46,4.50
2020,04,24,04,47,4.60
2020,04,24,04,48,4.50
2020,04,24,04,49,4.50
2020,04,24,04,50,4.60
2020,04,24,04,51,4.60
2020,04,24,04,52,4.60
2020,04,24,04,53,4.60
2020,04,24,04,54,4.60
2020,04,24,04,55,4.60
2020,04,24,04,56,4.60
2020,04,24,04,57,4.60
2020,04,24,04,58,4.60
2020,04,24,04,59,4.60
2020,04,24,05,00,4.60
2020,04,24,05,01,4.60
2020,04,24,05,02,4.60
2020,04,24,05,03,4.60
2020,04,24,05,04,4.60
2020,04,24,05,05,4.60
2020,04,24,05,06,4.60
2020,04,24,05,07,4.60
2020,04,24,05,08,4.60
2020,04,24,05,09,4.60
2020,04,24,05,10,4.60
2020,04,24,05,11,4.60
2020,04,24,05,12,4.60
2020,04,24,05,13,4.60
2020,04,24,05,14,4.60
2020,04,24,05,15,4.60
2020,04,24,05,16,4.60
2020,04,24,05,17,4.60
2020,04,24,05,18,4.60
2020,04,24,05,19,4.60
2020,04,24,05,20,4.70
2020,04,24,05,21,4.70
2020,04,24,05,22,4.70
2020,04,24,05,23,4.70
2020,04,24,05,24,4.70
2020,04,24,05,25,4.70
2020,04,24,05,26,4.70
2020,04,24,05,27,4.70
2020,04,24,05,28,4.80
2020,04,24,05,29,4.80
2020,04,24,05,30,4.80
2020,04,24,05,31,4.80
2020,04,24,05,32,4.80
2020,04,24,05,33,4.80
2020,04,24,05,34,4.80
2020,04,24,05,35,4.90
2020,04,24,05,36,4.90
2020,04,24,05,37,4.90
2020,04,24,05,38,4.90
2020,04,24,05,39,4.90
2020,04,24,05,40,4.90
2020,04,24,05,41,5.00
2020,04,24,05,42,5.00
2020,04,24,05,43,5.00
2020,04,24,05,44,5.00
2020,04,24,05,45,5.10
2020,04,24,05,46,5.10
2020,04,24,05,47,5.10
2020,04,24,05,48,5.20
2020,04,24,05,49,5.20
2020,04,24,05,50,5.30
2020,04,24,05,51,5.30
2020,04,24,05,52,5.30
2020,04,24,05,53,5.40
2020,04,24,05,54,5.40
2020,04,24,05,55,5.40
2020,04,24,05,56,5.40
2020,04,24,05,57,5.40
2020,04,24,05,58,5.40
2020,04,24,05,59,5.50
2020,04,24,06,00,5.50
2020,04,24,06,01,5.50
2020,04,24,06,02,5.50
2020,04,24,06,03,5.50
2020,04,24,06,04,5.50
2020,04,24,06,05,5.50
2020,04,24,06,06,5.50
2020,04,24,06,07,5.60
2020,04,24,06,08,5.50
2020,04,24,06,09,5.60
2020,04,24,06,10,5.60
2020,04,24,06,11,5.60
2020,04,24,06,12,5.60
2020,04,24,06,13,5.60
2020,04,24,06,14,5.60
2020,04,24,06,15,5.60
2020,04,24,06,16,5.60
2020,04,24,06,17,5.60
2020,04,24,06,18,5.70
2020,04,24,06,19,5.70
2020,04,24,06,20,5.70
2020,04,24,06,21,5.80
2020,04,24,06,22,5.80
2020,04,24,06,23,5.80
2020,04,24,06,24,5.80
2020,04,24,06,25,5.80
2020,04,24,06,26,5.80
2020,04,24,06,27,5.90
2020,04,24,06,28,5.90
2020,04,24,06,29,5.90
2020,04,24,06,30,5.90
2020,04,24,06,31,5.90
2020,04,24,06,32,5.90
2020,04,24,06,33,5.90
2020,04,24,06,34,5.90
2020,04,24,06,35,5.90
2020,04,24,06,36,5.90
2020,04,24,06,37,6.00
2020,04,24,06,38,6.00
2020,04,24,06,39,6.00
2020,04,24,06,40,6.00
2020,04,24,06,41,6.00
2020,04,24,06,42,6.10
2020,04,24,06,43,6.10
2020,04,24,06,44,6.10
2020,04,24,06,45,6.10
2020,04,24,06,46,6.10
2020,04,24,06,47,6.10
2020,04,24,06,48,6.20
2020,04,24,06,49,6.20
2020,04,24,06,50,6.20
2020,04,24,06,51,6.20
2020,04,24,06,52,6.20
2020,04,24,06,53,6.20
2020,04,24,06,54,6.20
2020,04,24,06,55,6.20
2020,04,24,06,56,6.30
2020,04,24,06,57,6.30
2020,04,24,06,58,6.30
2020,04,24,06,59,6.30
2020,04,24,07,00,6.40
2020,04,24,07,01,6.40
2020,04,24,07,02,6.40
2020,04,24,07,03,6.40
2020,04,24,07,04,6.40
2020,04,24,07,05,6.40
2020,04,24,07,06,6.50
2020,04,24,07,07,6.50
2020,04,24,07,08,6.50
2020,04,24,07,09,6.50
2020,04,24,07,10,6.60
2020,04,24,07,11,6.60
2020,04,24,07,12,6.60
2020,04,24,07,13,6.60
2020,04,24,07,14,6.70
2020,04,24,07,15,6.70
2020,04,24,07,16,6.70
2020,04,24,07,17,6.70
2020,04,24,07,18,6.70
2020,04,24,07,19,6.70
2020,04,24,07,20,6.70
2020,04,24,07,21,6.80
2020,04,24,07,22,6.80
2020,04,24,07,23,6.80
2020,04,24,07,24,6.80
2020,04,24,07,25,6.80
2020,04,24,07,26,6.90
2020,04,24,07,27,6.90
2020,04,24,07,28,6.90
2020,04,24,07,29,7.00
2020,04,24,07,30,7.00
2020,04,24,07,31,7.00
2020,04,24,07,32,7.10
2020,04,24,07,33,7.10
2020,04,24,07,34,7.10
2020,04,24,07,35,7.20
2020,04,24,07,36,7.20
2020,04,24,07,37,7.30
2020,04,24,07,38,7.30
2020,04,24,07,39,7.30
2020,04,24,07,40,7.30
2020,04,24,07,41,7.40
2020,04,24,07,42,7.40
2020,04,24,07,43,7.40
2020,04,24,07,44,7.50
2020,04,24,07,45,7.50
2020,04,24,07,46,7.60
2020,04,24,07,47,7.60
2020,04,24,07,48,7.60
2020,04,24,07,49,7.70
2020,04,24,07,50,7.70
2020,04,24,07,51,7.80
2020,04,24,07,52,7.80
2020,04,24,07,53,7.80
2020,04,24,07,54,7.80
2020,04,24,07,55,7.90
2020,04,24,07,56,7.90
2020,04,24,07,57,7.90
2020,04,24,07,58,8.00
2020,04,24,07,59,8.00
2020,04,24,08,00,8.10
2020,04,24,08,01,8.10
2020,04,24,08,02,8.10
2020,04,24,08,03,8.20
2020,04,24,08,04,8.20
2020,04,24,08,05,8.30
2020,04,24,08,06,8.30
2020,04,24,08,07,8.30
2020,04,24,08,08,8.40
2020,04,24,08,09,8.40
2020,04,24,08,10,8.50
2020,04,24,08,11,8.50
2020,04,24,08,12,8.60
2020,04,24,08,13,8.70
2020,04,24,08,14,8.70
2020,04,24,08,15,8.70
2020,04,24,08,16,8.80
2020,04,24,08,17,8.80
2020,04,24,08,18,8.80
2020,04,24,08,19,8.80
2020,04,24,08,20,8.90
2020,04,24,08,21,8.90
2020,04,24,08,22,8.90
2020,04,24,08,23,9.00
2020,04,24,08,24,9.00
2020,04,24,08,25,9.10
2020,04,24,08,26,9.10
2020,04,24,08,27,9.20
2020,04,24,08,28,9.20
2020,04,24,08,29,9.20
2020,04,24,08,30,9.20
2020,04,24,08,31,9.30
2020,04,24,08,32,9.30
2020,04,24,08,33,9.30
2020,04,24,08,34,9.30
2020,04,24,08,35,9.40
2020,04,24,08,36,9.40
2020,04,24,08,37,9.40
2020,04,24,08,38,9.50
2020,04,24,08,39,9.50
2020,04,24,08,40,9.60
2020,04,24,08,41,9.60
2020,04,24,08,42,9.60
2020,04,24,08,43,9.70
2020,04,24,08,44,9.70
2020,04,24,08,45,9.80
2020,04,24,08,46,9.80
2020,04,24,08,47,9.80
2020,04,24,08,48,9.80
2020,04,24,08,49,9.90
2020,04,24,08,50,9.90
2020,04,24,08,51,10.00
2020,04,24,08,52,10.00
2020,04,24,08,53,10.10
2020,04,24,08,54,10.10
2020,04,24,08,55,10.10
2020,04,24,08,56,10.10
2020,04,24,08,57,10.20
2020,04,24,08,58,10.20
2020,04,24,08,59,10.20
2020,04,24,09,00,10.20
2020,04,24,09,01,10.20
2020,04,24,09,02,10.30
2020,04,24,09,03,10.30
2020,04,24,09,04,10.30
2020,04,24,09,05,10.30
2020,04,24,09,06,10.30
2020,04,24,09,07,10.20
2020,04,24,09,08,10.20
2020,04,24,09,09,10.20
2020,04,24,09,10,10.20
2020,04,24,09,11,10.30
2020,04,24,09,12,10.30
2020,04,24,09,13,10.30
2020,04,24,09,14,10.30
2020,04,24,09,15,10.30
2020,04,24,09,16,10.40
2020,04,24,09,17,10.40
2020,04,24,09,18,10.40
2020,04,24,09,19,10.30
2020,04,24,09,20,10.30
2020,04,24,09,21,10.30
2020,04,24,09,22,10.30
2020,04,24,09,23,10.30
2020,04,24,09,24,10.30
2020,04,24,09,25,10.30
2020,04,24,09,26,10.30
2020,04,24,09,27,10.40
2020,04,24,09,28,10.40
2020,04,24,09,29,10.40
2020,04,24,09,30,10.40
2020,04,24,09,31,10.40
2020,04,24,09,32,10.40
2020,04,24,09,33,10.40
2020,04,24,09,34,10.40
2020,04,24,09,35,10.40
2020,04,24,09,36,10.40
2020,04,24,09,37,10.40
2020,04,24,09,38,10.40
2020,04,24,09,39,10.40
2020,04,24,09,40,10.40
2020,04,24,09,41,10.30
2020,04,24,09,42,10.30
2020,04,24,09,43,10.30
2020,04,24,09,44,10.30
2020,04,24,09,45,10.20
2020,04,24,09,46,10.20
2020,04,24,09,47,10.20
2020,04,24,09,48,10.30
2020,04,24,09,49,10.30
2020,04,24,09,50,10.30
2020,04,24,09,51,10.30
2020,04,24,09,52,10.30
2020,04,24,09,53,10.30
2020,04,24,09,54,10.30
2020,04,24,09,55,10.30
2020,04,24,09,56,10.30
2020,04,24,09,57,10.30
2020,04,24,09,58,10.30
2020,04,24,09,59,10.30
2020,04,24,10,00,10.30
2020,04,24,10,01,10.30
2020,04,24,10,02,10.40
2020,04,24,10,03,10.40
2020,04,24,10,04,10.40
2020,04,24,10,05,10.40
2020,04,24,10,06,10.40
2020,04,24,10,07,10.50
2020,04,24,10,08,10.50
2020,04,24,10,09,10.50
2020,04,24,10,10,10.60
2020,04,24,10,11,10.60
2020,04,24,10,12,10.60
2020,04,24,10,13,10.60
2020,04,24,10,14,10.60
2020,04,24,10,15,10.70
2020,04,24,10,16,10.70
2020,04,24,10,17,10.70
2020,04,24,10,18,10.70
2020,04,24,10,19,10.70
2020,04,24,10,20,10.70
2020,04,24,10,21,10.70
2020,04,24,10,22,10.70
2020,04,24,10,23,10.80
2020,04,24,10,24,10.80
2020,04,24,10,25,10.80
2020,04,24,10,26,10.80
2020,04,24,10,27,10.80
2020,04,24,10,28,10.80
2020,04,24,10,29,10.80
2020,04,24,10,30,10.80
2020,04,24,10,31,10.80
2020,04,24,10,32,10.80
2020,04,24,10,33,10.90
2020,04,24,10,34,10.90
2020,04,24,10,35,11.00
2020,04,24,10,36,11.00
2020,04,24,10,37,11.10
2020,04,24,10,38,11.10
2020,04,24,10,39,11.10
2020,04,24,10,40,11.20
2020,04,24,10,41,11.20
2020,04,24,10,42,11.20
2020,04,24,10,43,11.20
2020,04,24,10,44,11.20
2020,04,24,10,45,11.20
2020,04,24,10,46,11.20
2020,04,24,10,47,11.20
2020,04,24,10,48,11.20
2020,04,24,10,49,11.20
2020,04,24,10,50,11.10
2020,04,24,10,51,11.00
2020,04,24,10,52,11.00
2020,04,24,10,53,11.00
2020,04,24,10,54,11.00
2020,04,24,10,55,11.00
2020,04,24,10,56,11.10
2020,04,24,10,57,11.10
2020,04,24,10,58,11.20
2020,04,24,10,59,11.20
2020,04,24,11,00,11.20
2020,04,24,11,01,11.20
2020,04,24,11,02,11.20
2020,04,24,11,03,11.20
2020,04,24,11,04,11.20
2020,04,24,11,05,11.20
2020,04,24,11,06,11.20
2020,04,24,11,07,11.20
2020,04,24,11,08,11.20
2020,04,24,11,09,11.30
2020,04,24,11,10,11.20
2020,04,24,11,11,11.20
2020,04,24,11,12,11.20
2020,04,24,11,13,11.10
2020,04,24,11,14,11.10
2020,04,24,11,15,11.10
2020,04,24,11,16,11.10
2020,04,24,11,17,11.10
2020,04,24,11,18,11.20
2020,04,24,11,19,11.10
2020,04,24,11,20,11.20
2020,04,24,11,21,11.20
2020,04,24,11,22,11.20
2020,04,24,11,23,11.20
2020,04,24,11,24,11.20
2020,04,24,11,25,11.20
2020,04,24,11,26,11.10
2020,04,24,11,27,11.10
2020,04,24,11,28,11.00
2020,04,24,11,29,11.10
2020,04,24,11,30,11.10
2020,04,24,11,31,11.10
2020,04,24,11,32,11.10
2020,04,24,11,33,11.20
2020,04,24,11,34,11.20
2020,04,24,11,35,11.20
2020,04,24,11,36,11.30
2020,04,24,11,37,11.30
2020,04,24,11,38,11.30
2020,04,24,11,39,11.30
2020,04,24,11,40,11.30
2020,04,24,11,41,11.30
2020,04,24,11,42,11.30
2020,04,24,11,43,11.20
2020,04,24,11,44,11.20
2020,04,24,11,45,11.20
2020,04,24,11,46,11.20
2020,04,24,11,47,11.20
2020,04,24,11,48,11.20
2020,04,24,11,49,11.20
2020,04,24,11,50,11.20
2020,04,24,11,51,11.30
2020,04,24,11,52,11.30
2020,04,24,11,53,11.30
2020,04,24,11,54,11.30
2020,04,24,11,55,11.40
2020,04,24,11,56,11.40
2020,04,24,11,57,11.40
2020,04,24,11,58,11.40
2020,04,24,11,59,11.40
2020,04,24,12,00,11.50
2020,04,24,12,01,11.50
2020,04,24,12,02,11.50
2020,04,24,12,03,11.50
2020,04,24,12,04,11.50
2020,04,24,12,05,11.40
2020,04,24,12,06,11.50
2020,04,24,12,07,11.50
2020,04,24,12,08,11.50
2020,04,24,12,09,11.40
2020,04,24,12,10,11.40
2020,04,24,12,11,11.40
2020,04,24,12,12,11.50
2020,04,24,12,13,11.50
2020,04,24,12,14,11.50
2020,04,24,12,15,11.60
2020,04,24,12,16,11.60
2020,04,24,12,17,11.60
2020,04,24,12,18,11.60
2020,04,24,12,19,11.60
2020,04,24,12,20,11.60
2020,04,24,12,21,11.60
2020,04,24,12,22,11.60
2020,04,24,12,23,11.60
2020,04,24,12,24,11.60
2020,04,24,12,25,11.60
2020,04,24,12,26,11.60
2020,04,24,12,27,11.60
2020,04,24,12,28,11.70
2020,04,24,12,29,11.70
2020,04,24,12,30,11.80
2020,04,24,12,31,11.80
2020,04,24,12,32,11.80
2020,04,24,12,33,11.80
2020,04,24,12,34,11.90
2020,04,24,12,35,11.90
2020,04,24,12,36,11.90
2020,04,24,12,37,11.90
2020,04,24,12,38,11.90
2020,04,24,12,39,11.90
2020,04,24,12,40,11.90
2020,04,24,12,41,11.90
2020,04,24,12,42,11.80
2020,04,24,12,43,11.70
2020,04,24,12,44,11.70
2020,04,24,12,45,11.70
2020,04,24,12,46,11.70
2020,04,24,12,47,11.70
2020,04,24,12,48,11.70
2020,04,24,12,49,11.80
2020,04,24,12,50,11.80
2020,04,24,12,51,11.80
2020,04,24,12,52,11.90
2020,04,24,12,53,12.00
2020,04,24,12,54,12.00
2020,04,24,12,55,12.00
2020,04,24,12,56,12.00
2020,04,24,12,57,12.00
2020,04,24,12,58,11.90
2020,04,24,12,59,11.90
2020,04,24,13,00,11.90
2020,04,24,13,01,11.90
2020,04,24,13,02,11.90
2020,04,24,13,03,11.90
2020,04,24,13,04,11.90
2020,04,24,13,05,12.00
2020,04,24,13,06,12.00
2020,04,24,13,07,12.00
2020,04,24,13,08,11.90
2020,04,24,13,09,11.90
2020,04,24,13,10,12.00
2020,04,24,13,11,12.00
2020,04,24,13,12,12.10
2020,04,24,13,13,12.10
2020,04,24,13,14,12.10
2020,04,24,13,15,12.20
2020,04,24,13,16,12.30
2020,04,24,13,17,12.30
2020,04,24,13,18,12.40
2020,04,24,13,19,12.50
2020,04,24,13,20,12.50
2020,04,24,13,21,12.60
2020,04,24,13,22,12.60
2020,04,24,13,23,12.60
2020,04,24,13,24,12.70
2020,04,24,13,25,12.70
2020,04,24,13,26,12.70
2020,04,24,13,27,12.60
2020,04,24,13,28,12.60
2020,04,24,13,29,12.60
2020,04,24,13,30,12.60
2020,04,24,13,31,12.60
2020,04,24,13,32,12.60
2020,04,24,13,33,12.70
2020,04,24,13,34,12.70
2020,04,24,13,35,12.80
2020,04,24,13,36,12.90
2020,04,24,13,37,12.90
2020,04,24,13,38,13.00
2020,04,24,13,39,13.10
2020,04,24,13,40,13.10
2020,04,24,13,41,13.20
2020,04,24,13,42,13.10
2020,04,24,13,43,13.00
2020,04,24,13,44,12.90
2020,04,24,13,45,12.90
2020,04,24,13,46,12.90
2020,04,24,13,47,12.90
2020,04,24,13,48,12.90
2020,04,24,13,49,13.00
2020,04,24,13,50,13.00
2020,04,24,13,51,13.00
2020,04,24,13,52,13.00
2020,04,24,13,53,13.00
2020,04,24,13,54,13.10
2020,04,24,13,55,13.20
2020,04,24,13,56,13.30
2020,04,24,13,57,13.30
2020,04,24,13,58,13.40
2020,04,24,13,59,13.50
2020,04,24,14,00,13.60
2020,04,24,14,01,13.60
2020,04,24,14,02,13.70
2020,04,24,14,03,13.70
2020,04,24,14,04,13.70
2020,04,24,14,05,13.60
2020,04,24,14,06,13.50
2020,04,24,14,07,13.40
2020,04,24,14,08,13.30
2020,04,24,14,09,13.20
2020,04,24,14,10,13.20
2020,04,24,14,11,13.20
2020,04,24,14,12,13.20
2020,04,24,14,13,13.30
2020,04,24,14,14,13.40
2020,04,24,14,15,13.40
2020,04,24,14,16,13.40
2020,04,24,14,17,13.40
2020,04,24,14,18,13.30
2020,04,24,14,19,13.20
2020,04,24,14,20,13.20
2020,04,24,14,21,13.20
2020,04,24,14,22,13.20
2020,04,24,14,23,13.20
2020,04,24,14,24,13.30
2020,04,24,14,25,13.30
2020,04,24,14,26,13.30
2020,04,24,14,27,13.30
2020,04,24,14,28,13.30
2020,04,24,14,29,13.20
2020,04,24,14,30,13.30
2020,04,24,14,31,13.30
2020,04,24,14,32,13.40
2020,04,24,14,33,13.40
2020,04,24,14,34,13.40
2020,04,24,14,35,13.30
2020,04,24,14,36,13.30
2020,04,24,14,37,13.30
2020,04,24,14,38,13.30
2020,04,24,14,39,13.30
2020,04,24,14,40,13.30
2020,04,24,14,41,13.30
2020,04,24,14,42,13.30
2020,04,24,14,43,13.30
2020,04,24,14,44,13.40
2020,04,24,14,45,13.50
2020,04,24,14,46,13.40
2020,04,24,14,47,13.50
2020,04,24,14,48,13.50
2020,04,24,14,49,13.50
2020,04,24,14,50,13.50
2020,04,24,14,51,13.50
2020,04,24,14,52,13.50
2020,04,24,14,53,13.60
2020,04,24,14,54,13.70
2020,04,24,14,55,13.80
2020,04,24,14,56,13.80
2020,04,24,14,57,13.80
2020,04,24,14,58,13.80
2020,04,24,14,59,13.70
2020,04,24,15,00,13.70
2020,04,24,15,01,13.80
2020,04,24,15,02,13.80
2020,04,24,15,03,13.80
2020,04,24,15,04,13.80
2020,04,24,15,05,13.80
2020,04,24,15,06,13.80
2020,04,24,15,07,13.80
2020,04,24,15,08,13.70
2020,04,24,15,09,13.70
2020,04,24,15,10,13.70
2020,04,24,15,11,13.70
2020,04,24,15,12,13.70
2020,04,24,15,13,13.70
2020,04,24,15,14,13.80
2020,04,24,15,15,13.80
2020,04,24,15,16,13.80
2020,04,24,15,17,13.70
2020,04,24,15,18,13.70
2020,04,24,15,19,13.70
2020,04,24,15,20,13.80
2020,04,24,15,21,13.80
2020,04,24,15,22,13.80
2020,04,24,15,23,13.80
2020,04,24,15,24,13.80
2020,04,24,15,25,13.80
2020,04,24,15,26,13.70
2020,04,24,15,27,13.70
2020,04,24,15,28,13.80
2020,04,24,15,29,13.80
2020,04,24,15,30,13.80
2020,04,24,15,31,13.70
2020,04,24,15,32,13.70
2020,04,24,15,33,13.70
2020,04,24,15,34,13.70
2020,04,24,15,35,13.70
2020,04,24,15,36,13.70
2020,04,24,15,37,13.80
2020,04,24,15,38,13.80
2020,04,24,15,39,13.70
2020,04,24,15,40,13.70
2020,04,24,15,41,13.60
2020,04,24,15,42,13.60
2020,04,24,15,43,13.50
2020,04,24,15,44,13.50
2020,04,24,15,45,13.50
2020,04,24,15,46,13.50
2020,04,24,15,47,13.50
2020,04,24,15,48,13.50
2020,04,24,15,49,13.50
2020,04,24,15,50,13.60
2020,04,24,15,51,13.60
2020,04,24,15,52,13.70
2020,04,24,15,53,13.70
2020,04,24,15,54,13.80
2020,04,24,15,55,13.80
2020,04,24,15,56,13.80
2020,04,24,15,57,13.80
2020,04,24,15,58,13.80
2020,04,24,15,59,13.90
2020,04,24,16,00,13.90
2020,04,24,16,01,13.90
2020,04,24,16,02,13.90
2020,04,24,16,03,14.00
2020,04,24,16,04,14.00
2020,04,24,16,05,14.00
2020,04,24,16,06,13.90
2020,04,24,16,07,13.90
2020,04,24,16,08,13.80
2020,04,24,16,09,13.70
2020,04,24,16,10,13.70
2020,04,24,16,11,13.60
2020,04,24,16,12,13.60
2020,04,24,16,13,13.60
2020,04,24,16,14,13.60
2020,04,24,16,15,13.70
2020,04,24,16,16,13.70
2020,04,24,16,17,13.80
2020,04,24,16,18,13.90
2020,04,24,16,19,13.90
2020,04,24,16,20,13.90
2020,04,24,16,21,14.00
2020,04,24,16,22,14.10
2020,04,24,16,23,14.20
2020,04,24,16,24,14.30
2020,04,24,16,25,14.40
2020,04,24,16,26,14.30
2020,04,24,16,27,14.30
2020,04,24,16,28,14.20
2020,04,24,16,29,14.20
2020,04,24,16,30,14.10
2020,04,24,16,31,14.00
2020,04,24,16,32,14.00
2020,04,24,16,33,14.00
2020,04,24,16,34,14.00
2020,04,24,16,35,14.10
2020,04,24,16,36,14.10
2020,04,24,16,37,14.20
2020,04,24,16,38,14.30
2020,04,24,16,39,14.30
2020,04,24,16,40,14.40
2020,04,24,16,41,14.40
2020,04,24,16,42,14.40
2020,04,24,16,43,14.40
2020,04,24,16,44,14.40
2020,04,24,16,45,14.40
2020,04,24,16,46,14.40
2020,04,24,16,47,14.30
2020,04,24,16,48,14.30
2020,04,24,16,49,14.30
2020,04,24,16,50,14.30
2020,04,24,16,51,14.30
2020,04,24,16,52,14.40
2020,04,24,16,53,14.50
2020,04,24,16,54,14.50
2020,04,24,16,55,14.60
2020,04,24,16,56,14.80
2020,04,24,16,57,14.90
2020,04,24,16,58,15.00
2020,04,24,16,59,15.10
2020,04,24,17,00,15.10
2020,04,24,17,01,15.20
2020,04,24,17,02,15.20
2020,04,24,17,03,15.20
2020,04,24,17,04,15.10
2020,04,24,17,05,15.00
2020,04,24,17,06,14.90
2020,04,24,17,07,14.80
2020,04,24,17,08,14.80
2020,04,24,17,09,14.80
2020,04,24,17,10,14.80
2020,04,24,17,11,14.80
2020,04,24,17,12,14.80
2020,04,24,17,13,14.80
2020,04,24,17,14,14.80
2020,04,24,17,15,14.90
2020,04,24,17,16,14.90
2020,04,24,17,17,14.90
2020,04,24,17,18,15.00
2020,04,24,17,19,15.00
2020,04,24,17,20,15.10
2020,04,24,17,21,15.10
2020,04,24,17,22,15.10
2020,04,24,17,23,15.20
2020,04,24,17,24,15.20
2020,04,24,17,25,15.10
2020,04,24,17,26,15.10
2020,04,24,17,27,15.00
2020,04,24,17,28,14.90
2020,04,24,17,29,14.90
2020,04,24,17,30,14.80
2020,04,24,17,31,14.80
2020,04,24,17,32,14.80
2020,04,24,17,33,14.80
2020,04,24,17,34,14.90
2020,04,24,17,35,14.90
2020,04,24,17,36,14.90
2020,04,24,17,37,14.80
2020,04,24,17,38,14.80
2020,04,24,17,39,14.80
2020,04,24,17,40,14.80
2020,04,24,17,41,14.80
2020,04,24,17,42,14.70